Regional Weather Roundup
Issued by NWS Lake Charles, LA

Home | Current Version | Previous Version | Text Only | Print | Product List | Glossary On
Versions: 1 2 3 4 5 6 7 8 9 10 11 12 13 14 15 16 17 18 19 20 21 22 23 24 25 26 27 28 29 30 31 32 33 34 35 36 37 38 39 40 41 42 43 44 45 46 47 48 49 50
000
ASUS44 KLCH 281610
RWRLCH
RWRLCH
REGIONAL WEATHER ROUNDUP
NATIONAL WEATHER SERVICE LAKE CHARLES LA
1100 AM CDT SAT MAR 28 2015

Note: "fair" indicates few or no clouds below 12,000 feet with no
significant weather and/or obstructions to visibility.


ACROSS SOUTHEAST TEXAS

CITY           SKY/WX    TMP DP  RH WIND       PRES   REMARKS
BEAUMONT       SUNNY     72  53  51 SE10      30.20R
BEAUMONT CITY    N/A     69  52  54 SE8       30.20S
ORANGE         SUNNY     67  53  59 S9        30.23R
JASPER         SUNNY     67  47  49 S5        30.22S
$$

ACROSS CENTRAL LOUISIANA

CITY           SKY/WX    TMP DP  RH WIND       PRES   REMARKS
LEESVILLE      SUNNY     61  44  52 SE7       30.20R
FULLERTON        N/A     65  42  43 MISG      30.19R
ALEXANDRIA INT SUNNY     59  42  53 SE12      30.21S
ESLER FIELD    SUNNY     58  40  51 VRB5      30.22S
DERIDDER         N/A     62  43  50 CALM      30.23R
OAKDALE        SUNNY     62  44  52 SE8       30.23S
OPELOUSAS        N/A     60  42  51 SE7       30.23F
$$

ACROSS SOUTHWEST AND SOUTH CENTRAL LOUISIANA

CITY           SKY/WX    TMP DP  RH WIND       PRES   REMARKS
SULPHUR        SUNNY     67  50  54 S12       30.22S
LAKE CHARLES   SUNNY     66  49  54 VRB7      30.22R
CHENNAULT INT  SUNNY     64  50  59 SE12      30.22R
CAMERON PHI    NOT AVBL
DEQUINCY         N/A     64  47  53 SE8       30.21S
JENNINGS         N/A     62  46  55 SE9       30.22S
LAFAYETTE      SUNNY     63  45  51 VRB5      30.23F
NEW IBERIA     SUNNY     64  45  49 SE7       30.23F
ABBEVILLE        N/A     63  45  51 SE7       30.22F
PATTERSON      SUNNY     61  45  55 E10       30.25F
SALT POINT       N/A     63  46  54 VRB7      30.22S
$$

SELECTED SITES ACROSS THE REGION

CITY           SKY/WX    TMP DP  RH WIND       PRES   REMARKS
HOUSTON BUSH   MOSUNNY   72  48  42 SW7       30.18S
HOUSTON HOBBY  MOSUNNY   71  48  43 SW8       30.19R
GALVESTON      SUNNY     69  58  67 S8        30.20R
COLLEGE STAT   SUNNY     68  45  43 S12       30.15F
CONROE         SUNNY     68  45  43 S9        30.18S
HUNTSVILLE     SUNNY     67  43  41 S10       30.16S
LUFKIN         SUNNY     68  43  40 SE9       30.17F
SHREVEPORT     PTSUNNY   61  42  49 SE13      30.17F
MONROE         PTSUNNY   52  38  58 E6        30.26R
NATCHEZ MS     MOSUNNY   55  36  47 SE8       30.24F
BATON ROUGE    SUNNY     60  36  40 E8        30.25R
N.O. INTL ARPT MOSUNNY   61  38  42 E8        30.26R
SLIDELL        SUNNY     58  37  45 E7        30.27R
$$

MARINE REPORTS

STATION/POSITION TIME  TEMP    WIND        PRES    VSBY  WAVE
                       AIR SEA DIR/SP/G                  HT/PER
                 (UTC) (F)     (DEG/KT/KT) (MB)    (MI)  (FT/S)
BUOY 30 S HIGH I 1550   65 64  130/  6/  6 1022.4R         2/ 4
SEA RIM ST PARK  1600   66     150/  8/ 10 1023.3S
PORT ARTHUR      1506      67  150/  7/ 11 1022.8R
SABINE PASS N    1500   65 67  150/ 12/ 15 1022.8R
TEXAS POINT      NOT AVBL
CALCASIEU PASS   1500   62 65  130/ 11/ 14   N/A
LK CHARLES BEACH 1500   60 66              1023.1R
MARSH ISLAND     NOT AVBL
FRESH WATER LOCK 1500   60 66   80/ 11/ 16 1022.9R
AMERADA PASS     1500   58 57  100/  8/ 12 1023.6R
$$


USA.gov is the U.S. government's official web portal to all federal, state and local government web resources and services.